[[{"header":{"parameterUnit":"m.s-1","parameterCategory":1,"la1":30.2991,"la2":30.254,"lo1":-89.0895,"lo2":-89.0444,"dy":0.0017,"dx":0.0017,"nx":28,"ny":28,"refTime":"2024-03-13T09:00:00:Z","depth":0,"parameterNumber":2,"parameterNumberName":"U-component_of_WINDS"},"data":[0,0,0,0,0,0,0,0,0,0,0,0,0,0,0,0,0,0,0,0,0,0,0,0,0,0,0,0,0,0,0,0,0,0,0,0,0,0,0,0,0,0,0,0,0,0,0,0,0,0,0,0,0,0,0,0,0,0,-2.246,-2.246,0,-2.2447,-2.2447,-2.2447,-2.234,-2.2338,-2.2335,-2.2332,-2.2321,-2.2323,-2.2325,0,0,0,0,0,0,0,0,0,0,0,0,0,-2.2393,-2.2395,-2.246,-2.246,-2.246,-2.2447,-2.2447,-2.2447,-2.2341,-2.2337,-2.2334,-2.2331,-2.232,-2.2322,-2.2325,0,0,0,0,0,0,0,0,0,0,0,0,0,-2.2406,-2.2396,-2.246,-2.2405,-2.24,-2.2447,-2.2447,-2.2447,-2.2341,-2.2337,-2.2333,-2.233,-2.2319,-2.2322,-2.2325,-2.2425,0,0,-2.2335,-2.2337,0,0,0,0,0,0,0,0,-2.2405,-2.2408,-2.2413,-2.2409,-2.2403,-2.2391,-2.2419,-2.244,-2.2342,-2.2364,-2.2332,-2.2328,-2.2347,-2.2348,-2.2354,-2.2424,-2.2424,-2.2336,-2.2338,-2.2339,-2.234,0,0,0,0,0,0,0,-2.2404,-2.2408,-2.2455,-2.2414,-2.2408,-2.2382,-2.2379,-2.2423,-2.2378,-2.2362,-2.2354,-2.2354,-2.2344,-2.2352,-2.2353,-2.2424,-2.2335,-2.2338,-2.234,-2.2342,-2.2575,-2.2579,0,0,0,0,0,0,-2.2411,-2.2408,-2.2455,-2.2455,-2.2395,-2.2386,-2.2383,-2.2399,-2.2377,-2.237,-2.2357,-2.2349,-2.2348,-2.235,-2.2353,-2.2468,-2.2339,-2.2342,-2.2344,-2.257,-2.2576,-2.258,0,0,0,0,0,0,-2.241,-2.2416,-2.2456,-2.2429,-2.2432,-2.2391,-2.241,-2.2401,-2.2408,-2.2374,-2.2365,-2.2373,-2.2345,-2.2348,-2.2408,-2.2466,-2.2343,-2.2346,-2.2565,-2.2572,-2.2578,-2.2699,0,0,0,0,0,0,-2.2409,-2.2417,-2.2454,-2.2431,-2.2434,-2.2511,-2.2414,-2.2404,-2.2414,-2.2403,-2.2387,-2.238,-2.2342,-2.2403,-2.2411,-2.2468,-2.2349,-2.256,-2.2568,-2.2576,-2.2689,-2.2709,-2.2725,0,0,0,0,0,-2.2407,-2.2488,-2.2456,-2.2462,-2.248,-2.2515,-2.2517,-2.2471,-2.2419,-2.2456,-2.2434,-2.2381,-2.2458,-2.241,-2.2418,-2.2477,-2.2556,-2.2566,-2.2575,-2.2682,-2.2705,-2.2724,0,0,0,0,0,0,-2.2519,-2.2484,-2.2448,-2.2525,-2.2524,-2.2497,-2.2542,-2.2497,-2.2511,-2.25,-2.2443,-2.244,-2.2509,-2.2498,-2.2446,-2.2572,-2.2498,-2.251,-2.2576,-2.2598,-2.2615,-2.2616,-2.2352,0,0,0,0,0,-2.2553,-2.2584,-2.2552,-2.2623,-2.2624,-2.2584,-2.2597,-2.2562,-2.2559,-2.2558,-2.2539,-2.2539,-2.2562,-2.258,-2.26,-2.2687,-2.2683,-2.2732,-2.275,-2.2764,-2.2775,-2.2821,-2.2843,-2.2612,-2.2612,-2.2611,0,0,-2.2623,-2.2608,-2.2631,-2.2645,-2.264,-2.2674,-2.2584,-2.2623,-2.2648,-2.2563,-2.2619,-2.2606,-2.2601,-2.2675,-2.2707,-2.2669,-2.2838,-2.2776,-2.2788,-2.2791,-2.2833,-2.2855,-2.2875,-2.2618,-2.2617,-2.2616,0,0,-2.2768,-2.2759,-2.2818,-2.2814,-2.2808,-2.278,-2.2795,-2.2774,-2.2763,-2.2817,-2.2754,-2.2783,-2.2826,-2.2825,-2.283,-2.2976,-2.2927,-2.2984,-2.3077,-2.3122,-2.314,-2.3156,-2.3209,-2.3228,-2.2995,-2.2995,-2.2995,0,-2.2856,-2.2904,-2.2853,-2.2897,-2.2905,-2.283,-2.2889,-2.2889,-2.2889,-2.2897,-2.2854,-2.2907,-2.2898,-2.2971,-2.3007,-2.3013,-2.3028,-2.2986,-2.3142,-2.3157,-2.3171,-2.322,-2.324,-2.3002,-2.3001,-2.3001,-2.3,0,-2.3013,-2.3047,-2.3095,-2.3097,-2.3111,-2.3162,-2.312,-2.314,-2.3104,-2.3082,-2.3138,-2.3125,-2.3142,-2.3157,-2.3122,-2.3225,-2.3202,-2.3152,-2.3076,-2.3201,-2.3246,-2.3265,-2.3012,-2.301,-2.3007,-2.3006,0,0,-2.3228,-2.3202,-2.322,-2.322,-2.3208,-2.3234,-2.3282,-2.3298,-2.3316,-2.3319,-2.3359,-2.3397,-2.335,-2.3356,-2.3321,-2.3361,-2.3478,-2.3305,-2.3304,-2.3338,-2.3591,-2.3629,-2.3652,-2.3445,-2.3449,-2.3451,-2.3592,0,-2.3367,-2.3447,-2.3404,-2.349,-2.3522,-2.3451,-2.3493,-2.349,-2.3471,-2.3495,-2.3473,-2.3501,-2.3437,-2.3441,-2.3477,-2.3456,-2.3528,-2.3445,-2.3482,-2.3484,-2.3485,-2.3676,-2.3716,-2.3849,-2.3609,-2.3612,-2.3614,0,-2.354,-2.3551,-2.3641,-2.3623,-2.3634,-2.3673,-2.3684,-2.3708,-2.3704,-2.3686,-2.3694,-2.3649,-2.3695,-2.3621,-2.3684,-2.3629,-2.3641,-2.3633,-2.3637,-2.3639,-2.3557,-2.3683,-2.389,-2.3911,-2.3641,-2.3639,-2.3637,0,-2.3689,-2.3725,-2.3784,-2.3786,-2.3766,-2.3795,-2.3789,-2.378,-2.3793,-2.3803,-2.381,-2.3826,-2.3835,-2.3848,-2.3809,-2.3758,-2.3878,-2.38,-2.3866,-2.3867,-2.3894,-2.3893,-2.4107,-2.3902,-2.3902,-2.3902,-2.3901,0,-2.3849,-2.3907,-2.385,-2.3886,-2.3949,-2.3898,-2.3962,-2.3948,-2.3941,-2.3974,-2.3914,-2.3946,-2.3892,-2.3918,-2.3888,-2.3946,-2.395,-2.3938,-2.3929,-2.3943,-2.3945,-2.3951,-2.394,-2.3907,-2.3906,-2.3905,-2.3904,0,-2.4025,-2.3989,-2.4048,-2.4025,-2.4021,-2.4068,-2.4048,-2.4081,-2.4057,-2.4099,-2.4106,-2.4069,-2.4098,-2.406,-2.4084,-2.4064,-2.4143,-2.412,-2.4144,-2.4138,-2.4206,-2.42,-2.4431,-2.4459,-2.4237,-2.4239,-2.4241,0,-2.413,-2.4172,-2.4154,-2.4171,-2.4168,-2.4197,-2.4209,-2.4161,-2.4177,-2.4176,-2.4209,-2.4232,-2.4248,-2.4296,-2.4272,-2.4291,-2.4268,-2.4348,-2.427,-2.4284,-2.427,-2.4268,-2.4272,-2.4364,-2.4366,-2.4369,-2.437,0,-2.4319,-2.43,-2.432,-2.4335,-2.4351,-2.4361,-2.4365,-2.4383,-2.4333,-2.4354,-2.4382,-2.4394,-2.4419,-2.4443,-2.4456,-2.4449,-2.4402,-2.4395,-2.4411,-2.4426,-2.4438,-2.4433,-2.4188,-2.439,-2.4388,-2.4386,-2.4385,-2.4385,-2.4463,-2.4498,-2.449,-2.4515,-2.4514,-2.452,-2.4549,-2.453,-2.4552,-2.4569,-2.4539,-2.4575,-2.457,-2.4582,-2.458,-2.4608,-2.4573,-2.4597,-2.4603,-2.4609,-2.462,-2.4434,-2.461,-2.4609,-2.4609,-2.4608,-2.4608,0,-2.4649,-2.4641,-2.4665,-2.4673,-2.4693,-2.4647,-2.465,-2.467,-2.4702,-2.4701,-2.4718,-2.4751,-2.4774,-2.4752,-2.4771,-2.4797,-2.4776,-2.4804,-2.4801,-2.4801,-2.465,-2.4634,-2.4821,-2.4821,-2.4821,-2.482,-2.482,-2.482,-2.4749,-2.4806,-2.4785,-2.4841,-2.4832,-2.4867,-2.4873,-2.4878,-2.4877,-2.4917,-2.4935,-2.4921,-2.4912,-2.493,-2.4949,-2.4942,-2.4952,-2.4987,-2.4973,-2.4832,-2.4811,-2.4791,-2.4776,-2.499,-2.499,-2.5121,-2.5123,-2.5124]},{"header":{"parameterUnit":"m.s-1","parameterCategory":1,"la1":30.2991,"la2":30.254,"lo1":-89.0895,"lo2":-89.0444,"dy":0.0017,"dx":0.0017,"nx":28,"ny":28,"refTime":"2024-03-13T09:00:00:Z","depth":0,"parameterNumber":3,"parameterNumberName":"V-component_of_WINDS"},"data":[0,0,0,0,0,0,0,0,0,0,0,0,0,0,0,0,0,0,0,0,0,0,0,0,0,0,0,0,0,0,0,0,0,0,0,0,0,0,0,0,0,0,0,0,0,0,0,0,0,0,0,0,0,0,0,0,0,0,-0.0575,-0.0575,0,-0.0595,-0.0596,-0.0596,-0.0633,-0.0634,-0.0635,-0.0635,-0.0656,-0.0655,-0.0655,0,0,0,0,0,0,0,0,0,0,0,0,0,-0.0569,-0.0569,-0.0575,-0.0575,-0.0576,-0.0595,-0.0596,-0.0596,-0.0633,-0.0634,-0.0635,-0.0636,-0.0656,-0.0655,-0.0655,0,0,0,0,0,0,0,0,0,0,0,0,0,-0.0578,-0.0569,-0.0575,-0.0597,-0.0599,-0.0595,-0.0596,-0.0596,-0.0633,-0.0634,-0.0635,-0.0636,-0.0656,-0.0655,-0.0655,-0.0632,0,0,-0.0655,-0.0655,0,0,0,0,0,0,0,0,-0.0578,-0.0579,-0.0593,-0.0595,-0.0598,-0.0613,-0.0601,-0.0608,-0.0633,-0.062,-0.0635,-0.0637,-0.064,-0.0642,-0.0643,-0.0633,-0.0634,-0.0655,-0.0654,-0.0654,-0.0654,0,0,0,0,0,0,0,-0.0577,-0.0578,-0.0583,-0.0593,-0.0596,-0.0605,-0.0608,-0.0602,-0.0624,-0.0621,-0.0624,-0.0626,-0.0642,-0.0643,-0.0644,-0.0634,-0.0655,-0.0654,-0.0654,-0.0654,-0.0607,-0.0606,0,0,0,0,0,0,-0.0573,-0.0577,-0.0582,-0.0584,-0.059,-0.0604,-0.0607,-0.0607,-0.0624,-0.0628,-0.0625,-0.0627,-0.0643,-0.0644,-0.0645,-0.0619,-0.0654,-0.0654,-0.0654,-0.0608,-0.0607,-0.0606,0,0,0,0,0,0,-0.0573,-0.0573,-0.0582,-0.0581,-0.0583,-0.0603,-0.0603,-0.0607,-0.0608,-0.0627,-0.0631,-0.0622,-0.0644,-0.0645,-0.0635,-0.062,-0.0654,-0.0654,-0.061,-0.0608,-0.0606,-0.0567,0,0,0,0,0,0,-0.0573,-0.0573,-0.0565,-0.0581,-0.0583,-0.0572,-0.0602,-0.0606,-0.0608,-0.0611,-0.0625,-0.0629,-0.0645,-0.0635,-0.0635,-0.0621,-0.0654,-0.0611,-0.0609,-0.0607,-0.057,-0.0565,-0.056,0,0,0,0,0,-0.0572,-0.0553,-0.0564,-0.0564,-0.0573,-0.0571,-0.0572,-0.0591,-0.0606,-0.0598,-0.061,-0.0628,-0.0622,-0.0634,-0.0634,-0.0619,-0.0612,-0.061,-0.0607,-0.0572,-0.0566,-0.056,0,0,0,0,0,0,-0.0534,-0.0555,-0.0568,-0.0553,-0.056,-0.0577,-0.0567,-0.0583,-0.0586,-0.0589,-0.0612,-0.0615,-0.0603,-0.061,-0.0623,-0.0598,-0.062,-0.0617,-0.0594,-0.0587,-0.0582,-0.0581,-0.0654,0,0,0,0,0,-0.0524,-0.052,-0.0539,-0.0524,-0.0527,-0.0546,-0.0546,-0.056,-0.0568,-0.0572,-0.0583,-0.059,-0.059,-0.0589,-0.059,-0.0572,-0.0575,-0.0561,-0.0556,-0.0552,-0.0549,-0.0541,-0.0535,-0.0597,-0.0598,-0.0598,0,0,-0.0502,-0.0514,-0.051,-0.0517,-0.0524,-0.052,-0.0549,-0.0543,-0.0541,-0.0571,-0.0562,-0.0571,-0.0581,-0.0566,-0.0561,-0.0572,-0.0533,-0.0549,-0.0545,-0.0545,-0.0538,-0.0532,-0.0526,-0.0596,-0.0596,-0.0596,0,0,-0.0462,-0.047,-0.0458,-0.0465,-0.0475,-0.0489,-0.0486,-0.0501,-0.0508,-0.05,-0.0522,-0.052,-0.0519,-0.0525,-0.0527,-0.049,-0.0507,-0.0489,-0.0462,-0.0454,-0.0449,-0.0444,-0.0431,-0.0426,-0.0487,-0.0486,-0.0486,0,-0.0434,-0.0429,-0.045,-0.0444,-0.0446,-0.0473,-0.0462,-0.0467,-0.0477,-0.0478,-0.0491,-0.049,-0.0499,-0.0487,-0.0477,-0.0479,-0.0476,-0.0488,-0.0448,-0.0444,-0.044,-0.0428,-0.0423,-0.0484,-0.0485,-0.0485,-0.0485,0,-0.0395,-0.0391,-0.0381,-0.039,-0.0391,-0.0382,-0.0402,-0.04,-0.0414,-0.0426,-0.0418,-0.0429,-0.0432,-0.0431,-0.0444,-0.0421,-0.0427,-0.0444,-0.0466,-0.0432,-0.042,-0.0416,-0.0481,-0.0482,-0.0483,-0.0483,0,0,-0.033,-0.0352,-0.0347,-0.0352,-0.0366,-0.0363,-0.0356,-0.036,-0.0358,-0.0364,-0.0358,-0.0357,-0.0372,-0.0376,-0.039,-0.0382,-0.0352,-0.04,-0.04,-0.039,-0.0327,-0.0315,-0.0309,-0.0363,-0.0363,-0.0362,-0.0326,0,-0.0293,-0.0281,-0.03,-0.0284,-0.0281,-0.0307,-0.03,-0.0308,-0.0319,-0.0318,-0.033,-0.0329,-0.0349,-0.0351,-0.0345,-0.0357,-0.034,-0.036,-0.0358,-0.0358,-0.0355,-0.0303,-0.029,-0.0256,-0.0322,-0.0321,-0.0321,0,-0.0247,-0.0251,-0.0235,-0.025,-0.025,-0.0243,-0.0249,-0.0247,-0.0257,-0.0265,-0.0269,-0.0286,-0.028,-0.0302,-0.0294,-0.0307,-0.0308,-0.0314,-0.0313,-0.0314,-0.0337,-0.0302,-0.0245,-0.024,-0.0314,-0.0315,-0.0315,0,-0.0202,-0.0203,-0.0194,-0.0197,-0.0214,-0.0209,-0.0216,-0.0227,-0.0228,-0.0233,-0.0234,-0.0237,-0.0239,-0.0242,-0.026,-0.0274,-0.025,-0.0273,-0.0257,-0.0256,-0.025,-0.025,-0.0193,-0.025,-0.025,-0.0251,-0.0251,0,-0.0158,-0.0147,-0.0174,-0.0168,-0.0156,-0.0178,-0.0166,-0.0176,-0.0185,-0.0182,-0.0204,-0.0201,-0.0225,-0.0224,-0.0238,-0.0229,-0.023,-0.0236,-0.024,-0.0234,-0.0234,-0.0235,-0.0238,-0.0249,-0.025,-0.025,-0.025,0,-0.0105,-0.0123,-0.0114,-0.0131,-0.0136,-0.0126,-0.0141,-0.0137,-0.0149,-0.0145,-0.0145,-0.0164,-0.0164,-0.0183,-0.0186,-0.0196,-0.0181,-0.0189,-0.0178,-0.0181,-0.0163,-0.0165,-0.0105,-0.0098,-0.016,-0.0159,-0.0159,0,-0.0076,-0.0068,-0.0085,-0.0084,-0.009,-0.0089,-0.009,-0.0112,-0.0112,-0.0123,-0.0117,-0.0119,-0.0121,-0.012,-0.0135,-0.0138,-0.0146,-0.0125,-0.0147,-0.0142,-0.0146,-0.0147,-0.0146,-0.012,-0.012,-0.0119,-0.0119,0,-0.0022,-0.0031,-0.0033,-0.0037,-0.0038,-0.0043,-0.0049,-0.0047,-0.007,-0.007,-0.007,-0.0072,-0.0076,-0.0078,-0.0084,-0.0091,-0.0109,-0.0112,-0.0108,-0.0102,-0.0096,-0.0099,-0.0165,-0.0113,-0.0113,-0.0114,-0.0114,-0.0114,0.0019,0.0025,0.0014,0.0013,0.0007,0.0001,0.0005,-0.0007,-0.0008,-0.0013,-0.0026,-0.0024,-0.0034,-0.0044,-0.005,-0.0049,-0.006,-0.0055,-0.0054,-0.0052,-0.0049,-0.0096,-0.005,-0.0051,-0.0051,-0.0051,-0.0051,0,0.0072,0.0063,0.0063,0.0055,0.0054,0.0038,0.003,0.0031,0.0033,0.0024,0.0022,0.0021,0.002,0.0005,0.0001,0.0004,-0.0004,0.0004,0.0004,0.0002,-0.0039,-0.0042,0.0011,0.0011,0.0011,0.0011,0.0011,0.0011,0.0099,0.0107,0.0097,0.0102,0.0093,0.0094,0.0091,0.0086,0.008,0.008,0.0078,0.0068,0.0057,0.0053,0.005,0.0046,0.0045,0.0056,0.0049,0.0011,0.0005,-0.0001,-0.0003,0.0056,0.0056,0.009,0.009,0.009]}]]